DLH77M EDDM-LEBL

Flight info

Callsign DLH77M
Flight time 1h 43m
Altitude 37000
Route TURBU7S TURBU Y107 TOBSO DCT BAKOR DCT GEKBA DCT VAMTU DCT KOLON DCT GANGU DCT PADKO DCT DIVKO DCT NILDU N975 BISBA
Aircraft A320/M-SDE3FGHIRWY/LB1

Departure

Time 2026-05-06 19:49
Airport Munich Airport (EDDM)

Arrival

Time 2026-05-06 21:32
Airport Josep Tarradellas Barcelona-El Prat Airport (LEBL)
Time Latitude Longitude Altitude Speed Heading
2026-05-06 19:21 48.35034 11.80099 1485 ft 0 kts 173°
2026-05-06 19:36 48.35040 11.80097 1485 ft 3 kts 172°
2026-05-06 19:36 48.35058 11.80094 1480 ft 3 kts 172°
2026-05-06 19:36 48.35076 11.80090 1475 ft 3 kts 172°
2026-05-06 19:36 48.35094 11.80091 1474 ft 3 kts 212°
2026-05-06 19:37 48.35104 11.80105 1473 ft 0 kts 254°
2026-05-06 19:40 48.35104 11.80104 1485 ft 1 kts 254°
2026-05-06 19:40 48.35097 11.80048 1474 ft 12 kts 263°
2026-05-06 19:40 48.35088 11.79913 1479 ft 13 kts 264°
2026-05-06 19:40 48.35079 11.79805 1482 ft 4 kts 263°
2026-05-06 19:41 48.35074 11.79728 1482 ft 12 kts 264°
2026-05-06 19:41 48.35016 11.79667 1485 ft 13 kts 174°
2026-05-06 19:41 48.34930 11.79681 1476 ft 5 kts 173°
2026-05-06 19:41 48.34917 11.79683 1479 ft 1 kts 173°
2026-05-06 19:42 48.34912 11.79684 1482 ft 0 kts 173°
2026-05-06 19:42 48.34911 11.79684 1480 ft 0 kts 173°
2026-05-06 19:42 48.34885 11.79688 1485 ft 12 kts 173°
2026-05-06 19:42 48.34812 11.79713 1481 ft 12 kts 139°
2026-05-06 19:43 48.34802 11.79762 1485 ft 3 kts 90°
2026-05-06 19:43 48.34820 11.79927 1485 ft 30 kts 85°
2026-05-06 19:43 48.34825 11.80126 1485 ft 15 kts 109°
2026-05-06 19:43 48.34755 11.80236 1483 ft 14 kts 163°
2026-05-06 19:44 48.34658 11.80254 1479 ft 14 kts 173°
2026-05-06 19:44 48.34583 11.80268 1484 ft 0 kts 173°
2026-05-06 19:46 48.34574 11.80269 1478 ft 8 kts 173°
2026-05-06 19:47 48.34466 11.80257 1477 ft 16 kts 232°
2026-05-06 19:47 48.34459 11.80182 1482 ft 0 kts 263°
2026-05-06 19:47 48.34459 11.80180 1483 ft 0 kts 263°
2026-05-06 19:48 48.34457 11.80160 1485 ft 6 kts 263°
2026-05-06 19:48 48.34433 11.79826 1477 ft 67 kts 263°
2026-05-06 19:48 48.34354 11.78799 1483 ft 128 kts 263°
2026-05-06 19:48 48.34239 11.77297 1782 ft 152 kts 263°
2026-05-06 19:49 48.34119 11.75681 2378 ft 157 kts 263°
2026-05-06 19:49 48.33992 11.74012 2936 ft 169 kts 264°
2026-05-06 19:49 48.33735 11.72182 3283 ft 190 kts 245°
2026-05-06 19:49 48.32672 11.70882 3889 ft 215 kts 204°
2026-05-06 19:50 48.31163 11.70518 4720 ft 225 kts 191°
2026-05-06 19:50 48.29579 11.70505 5506 ft 232 kts 180°
2026-05-06 19:50 48.28017 11.71343 6244 ft 251 kts 153°
2026-05-06 19:50 48.26529 11.72940 6664 ft 274 kts 149°
2026-05-06 19:51 48.24918 11.74637 7243 ft 288 kts 150°
2026-05-06 19:51 48.23260 11.76348 8163 ft 290 kts 150°
2026-05-06 19:51 48.21593 11.78049 9166 ft 290 kts 151°
2026-05-06 19:51 48.19926 11.79740 10131 ft 289 kts 151°
2026-05-06 19:52 48.18208 11.81391 11000 ft 289 kts 157°
2026-05-06 19:52 48.16352 11.82523 11513 ft 301 kts 166°
2026-05-06 19:52 48.14266 11.83559 11893 ft 319 kts 166°
2026-05-06 19:52 48.12134 11.84606 12608 ft 325 kts 166°
2026-05-06 19:53 48.09973 11.85673 13415 ft 328 kts 166°
2026-05-06 19:53 48.07793 11.86750 14141 ft 331 kts 165°
2026-05-06 19:53 48.05596 11.87837 14835 ft 334 kts 165°
2026-05-06 19:53 48.03381 11.88936 15519 ft 337 kts 165°
2026-05-06 19:54 48.01145 11.90047 16201 ft 340 kts 164°
2026-05-06 19:54 47.98892 11.91164 16886 ft 343 kts 164°
2026-05-06 19:54 47.96614 11.92289 17574 ft 346 kts 164°
2026-05-06 19:54 47.94322 11.93421 18239 ft 349 kts 164°
2026-05-06 19:55 47.91987 11.94449 18792 ft 350 kts 172°
2026-05-06 19:55 47.89577 11.94842 19374 ft 349 kts 182°
2026-05-06 19:55 47.87149 11.94792 19954 ft 351 kts 183°
2026-05-06 19:55 47.84700 11.94736 20532 ft 353 kts 183°
2026-05-06 19:56 47.82229 11.94687 21098 ft 356 kts 183°
2026-05-06 19:56 47.79748 11.94641 21677 ft 357 kts 184°
2026-05-06 19:56 47.77258 11.94597 22248 ft 359 kts 184°
2026-05-06 19:56 47.74749 11.94551 22801 ft 361 kts 184°
2026-05-06 19:57 47.72228 11.94504 23357 ft 364 kts 184°
2026-05-06 19:57 47.69690 11.94457 23813 ft 366 kts 184°
2026-05-06 19:57 47.67139 11.94415 24213 ft 368 kts 184°
2026-05-06 19:57 47.64572 11.94371 24611 ft 370 kts 184°
2026-05-06 19:58 47.61995 11.94328 25065 ft 371 kts 184°
2026-05-06 19:58 47.59404 11.94285 25462 ft 373 kts 185°
2026-05-06 19:58 47.56772 11.94244 25985 ft 373 kts 185°
2026-05-06 19:58 47.54205 11.94202 26431 ft 374 kts 185°
2026-05-06 19:59 47.51594 11.94156 26862 ft 376 kts 185°
2026-05-06 19:59 47.48973 11.94110 27304 ft 378 kts 186°
2026-05-06 19:59 47.46304 11.94062 27737 ft 379 kts 186°
2026-05-06 19:59 47.43653 11.94007 28146 ft 381 kts 187°
2026-05-06 20:00 47.41032 11.93601 28555 ft 379 kts 192°
2026-05-06 20:00 47.38414 11.93071 28978 ft 380 kts 192°
2026-05-06 20:00 47.35797 11.92545 29387 ft 380 kts 192°
2026-05-06 20:00 47.33173 11.92019 29775 ft 382 kts 192°
2026-05-06 20:01 47.30534 11.91491 30124 ft 384 kts 193°
2026-05-06 20:01 47.27877 11.90959 30439 ft 386 kts 192°
2026-05-06 20:01 47.25206 11.90429 30761 ft 389 kts 192°
2026-05-06 20:01 47.22519 11.89898 31048 ft 391 kts 192°
2026-05-06 20:02 47.19819 11.89363 31358 ft 392 kts 192°
2026-05-06 20:02 47.17115 11.88827 31728 ft 392 kts 192°
2026-05-06 20:02 47.14414 11.88294 32152 ft 390 kts 193°
2026-05-06 20:02 47.11730 11.87768 32564 ft 390 kts 192°
2026-05-06 20:03 47.09042 11.87238 32822 ft 390 kts 193°
2026-05-06 20:03 47.06348 11.86703 33238 ft 391 kts 192°
2026-05-06 20:03 47.04565 11.86349 33561 ft 390 kts 192°
2026-05-06 20:03 47.00973 11.85613 34137 ft 389 kts 193°
2026-05-06 20:04 46.99209 11.85163 34320 ft 388 kts 195°
2026-05-06 20:04 46.96564 11.84362 34551 ft 388 kts 196°
2026-05-06 20:04 46.93931 11.83481 34757 ft 389 kts 197°
2026-05-06 20:04 46.91297 11.82574 34943 ft 390 kts 197°
2026-05-06 20:05 46.88652 11.81671 35215 ft 390 kts 197°
2026-05-06 20:05 46.85965 11.80778 35432 ft 391 kts 196°
2026-05-06 20:05 46.83301 11.79914 35695 ft 393 kts 195°
2026-05-06 20:05 46.80629 11.79063 35931 ft 394 kts 195°
2026-05-06 20:06 46.77943 11.78219 36117 ft 395 kts 195°
2026-05-06 20:06 46.75254 11.77378 36335 ft 396 kts 195°
2026-05-06 20:06 46.72558 11.76531 36561 ft 397 kts 195°
2026-05-06 20:06 46.69855 11.75682 36792 ft 397 kts 195°
2026-05-06 20:07 46.64472 11.73893 36900 ft 394 kts 201°
2026-05-06 20:07 46.59726 11.70094 36904 ft 390 kts 221°
2026-05-06 20:08 46.56134 11.64219 36909 ft 390 kts 231°
2026-05-06 20:08 46.52733 11.58073 36909 ft 390 kts 230°
2026-05-06 20:09 46.49325 11.51957 36927 ft 391 kts 230°
2026-05-06 20:09 46.45918 11.45824 36928 ft 390 kts 230°
2026-05-06 20:10 46.42506 11.39699 36928 ft 390 kts 230°
2026-05-06 20:10 46.39093 11.33592 36931 ft 390 kts 230°
2026-05-06 20:11 46.35677 11.27499 36968 ft 389 kts 230°
2026-05-06 20:11 46.32263 11.21420 37026 ft 389 kts 230°
2026-05-06 20:12 46.28846 11.15334 37013 ft 390 kts 230°
2026-05-06 20:12 46.25430 11.09255 37010 ft 389 kts 230°
2026-05-06 20:13 46.22005 11.03185 37001 ft 390 kts 230°
2026-05-06 20:13 46.18576 10.97127 36986 ft 389 kts 230°
2026-05-06 20:14 46.15114 10.91046 36983 ft 390 kts 230°
2026-05-06 20:14 46.11673 10.84994 36969 ft 390 kts 230°
2026-05-06 20:15 46.08262 10.78984 36960 ft 390 kts 230°
2026-05-06 20:15 46.04796 10.72906 36974 ft 390 kts 230°
2026-05-06 20:16 46.01350 10.66878 36958 ft 391 kts 230°
2026-05-06 20:16 45.97893 10.60850 36938 ft 391 kts 230°
2026-05-06 20:17 45.94437 10.54832 36931 ft 390 kts 230°
2026-05-06 20:17 45.90980 10.48823 36919 ft 391 kts 230°
2026-05-06 20:18 45.87510 10.42818 36926 ft 390 kts 230°
2026-05-06 20:18 45.84055 10.36839 36935 ft 388 kts 230°
2026-05-06 20:19 45.80609 10.30894 36936 ft 387 kts 230°
2026-05-06 20:19 45.77168 10.24973 36950 ft 386 kts 230°
2026-05-06 20:20 45.73734 10.19071 36907 ft 385 kts 230°
2026-05-06 20:20 45.70301 10.13179 36885 ft 385 kts 230°
2026-05-06 20:21 45.66877 10.07310 36909 ft 384 kts 230°
2026-05-06 20:21 45.63457 10.01474 36917 ft 383 kts 229°
2026-05-06 20:22 45.60031 9.95652 36922 ft 382 kts 229°
2026-05-06 20:22 45.56617 9.89846 36919 ft 382 kts 229°
2026-05-06 20:23 45.53178 9.84007 36909 ft 382 kts 230°
2026-05-06 20:23 45.49760 9.78219 36910 ft 381 kts 230°
2026-05-06 20:24 45.48053 9.75327 37037 ft 381 kts 230°
2026-05-06 20:24 45.46346 9.72440 37039 ft 382 kts 230°
2026-05-06 20:24 45.42918 9.66656 37034 ft 382 kts 229°
2026-05-06 20:25 45.39483 9.60885 37026 ft 382 kts 229°
2026-05-06 20:25 45.36047 9.55108 36996 ft 382 kts 230°
2026-05-06 20:26 45.32611 9.49346 36976 ft 382 kts 229°
2026-05-06 20:26 45.29164 9.43580 36953 ft 386 kts 229°
2026-05-06 20:27 45.25633 9.37693 36920 ft 397 kts 229°
2026-05-06 20:27 45.22008 9.31650 36884 ft 405 kts 229°
2026-05-06 20:28 45.18352 9.25565 36895 ft 406 kts 229°
2026-05-06 20:28 45.14666 9.19454 36890 ft 409 kts 229°
2026-05-06 20:29 45.10960 9.13333 36890 ft 409 kts 229°
2026-05-06 20:29 45.07252 9.07211 36895 ft 410 kts 229°
2026-05-06 20:30 45.01680 8.98036 36872 ft 410 kts 229°
2026-05-06 20:31 44.97933 8.91881 36881 ft 410 kts 229°
2026-05-06 20:31 44.94207 8.85767 36886 ft 411 kts 229°
2026-05-06 20:32 44.90472 8.79663 36895 ft 411 kts 229°
2026-05-06 20:32 44.86726 8.73557 36904 ft 412 kts 229°
2026-05-06 20:33 44.82974 8.67441 36877 ft 413 kts 229°
2026-05-06 20:33 44.79210 8.61334 36882 ft 413 kts 229°
2026-05-06 20:34 44.75441 8.55246 36888 ft 413 kts 229°
2026-05-06 20:34 44.71679 8.49151 36890 ft 413 kts 229°
2026-05-06 20:35 44.67916 8.43057 36884 ft 413 kts 229°
2026-05-06 20:35 44.64144 8.36977 36894 ft 413 kts 229°
2026-05-06 20:36 44.60374 8.30928 36910 ft 411 kts 229°
2026-05-06 20:36 44.56607 8.24889 36903 ft 411 kts 229°
2026-05-06 20:37 44.53457 8.19842 36897 ft 411 kts 229°
2026-05-06 20:37 44.49686 8.13827 36896 ft 410 kts 229°
2026-05-06 20:38 44.45915 8.07827 36894 ft 410 kts 229°
2026-05-06 20:38 44.42147 8.01828 36893 ft 410 kts 229°
2026-05-06 20:39 44.38378 7.95832 36922 ft 410 kts 229°
2026-05-06 20:39 44.34596 7.89842 36911 ft 411 kts 229°
2026-05-06 20:40 44.30809 7.83879 36900 ft 410 kts 229°
2026-05-06 20:40 44.27002 7.77939 36892 ft 411 kts 225°
2026-05-06 20:41 44.22749 7.72617 36884 ft 411 kts 223°
2026-05-06 20:41 44.18464 7.67339 36890 ft 412 kts 223°
2026-05-06 20:42 44.14218 7.61985 36879 ft 410 kts 228°
2026-05-06 20:42 44.10479 7.56007 36890 ft 409 kts 230°
2026-05-06 20:43 44.06746 7.50021 36880 ft 410 kts 230°
2026-05-06 20:43 44.02998 7.44033 36882 ft 411 kts 230°
2026-05-06 20:44 43.99240 7.38051 36880 ft 411 kts 229°
2026-05-06 20:44 43.95481 7.32077 36869 ft 411 kts 229°
2026-05-06 20:45 43.91717 7.26108 36887 ft 411 kts 229°
2026-05-06 20:45 43.87950 7.20151 36887 ft 411 kts 229°
2026-05-06 20:46 43.84184 7.14205 36893 ft 411 kts 229°
2026-05-06 20:46 43.80420 7.08272 36880 ft 410 kts 229°
2026-05-06 20:47 43.76650 7.02342 36898 ft 410 kts 229°
2026-05-06 20:47 43.72946 6.96332 36908 ft 410 kts 235°
2026-05-06 20:48 43.70411 6.89251 36895 ft 410 kts 246°
2026-05-06 20:48 43.68274 6.81947 36917 ft 410 kts 246°
2026-05-06 20:49 43.66109 6.74644 36912 ft 411 kts 246°
2026-05-06 20:49 43.63938 6.67348 36925 ft 411 kts 246°
2026-05-06 20:50 43.61770 6.60051 36920 ft 411 kts 246°
2026-05-06 20:50 43.59604 6.52762 36945 ft 410 kts 246°
2026-05-06 20:51 43.57434 6.45476 36981 ft 410 kts 246°
2026-05-06 20:51 43.55259 6.38200 36979 ft 411 kts 246°
2026-05-06 20:52 43.53075 6.30924 36975 ft 411 kts 246°
2026-05-06 20:52 43.50882 6.23639 36974 ft 411 kts 246°
2026-05-06 20:53 43.48683 6.16368 36971 ft 411 kts 246°
2026-05-06 20:53 43.46471 6.09091 36939 ft 411 kts 246°
2026-05-06 20:54 43.44264 6.01821 36966 ft 412 kts 246°
2026-05-06 20:54 43.42054 5.94545 36962 ft 412 kts 246°
2026-05-06 20:55 43.39831 5.87267 36969 ft 413 kts 246°
2026-05-06 20:55 43.37600 5.79996 36973 ft 413 kts 246°
2026-05-06 20:56 43.35364 5.72733 36979 ft 413 kts 246°
2026-05-06 20:56 43.33131 5.65465 36990 ft 413 kts 246°
2026-05-06 20:57 43.30896 5.58191 36992 ft 414 kts 246°
2026-05-06 20:57 43.28632 5.50874 36980 ft 414 kts 246°
2026-05-06 20:58 43.26379 5.43625 36998 ft 413 kts 246°
2026-05-06 20:58 43.24119 5.36383 37004 ft 412 kts 246°
2026-05-06 20:59 43.21896 5.29261 37009 ft 413 kts 246°
2026-05-06 20:59 43.19630 5.22025 36998 ft 413 kts 246°
2026-05-06 21:00 43.17357 5.14790 36991 ft 413 kts 246°
2026-05-06 21:00 43.15082 5.07553 36990 ft 414 kts 246°
2026-05-06 21:01 43.12801 5.00325 36987 ft 414 kts 246°
2026-05-06 21:01 43.10508 4.93101 36982 ft 414 kts 246°
2026-05-06 21:02 43.08215 4.85873 36990 ft 414 kts 246°
2026-05-06 21:02 43.05693 4.78806 36989 ft 414 kts 237°
2026-05-06 21:03 43.01770 4.73036 36988 ft 417 kts 224°
2026-05-06 21:03 42.97423 4.67786 36991 ft 417 kts 224°
2026-05-06 21:04 42.93075 4.62527 36997 ft 418 kts 224°
2026-05-06 21:04 42.88718 4.57280 37015 ft 417 kts 224°
2026-05-06 21:05 42.84362 4.52044 37011 ft 418 kts 224°
2026-05-06 21:05 42.79968 4.46780 37009 ft 418 kts 224°
2026-05-06 21:06 42.75602 4.41545 37010 ft 418 kts 224°
2026-05-06 21:06 42.71237 4.36316 37010 ft 418 kts 224°
2026-05-06 21:07 42.66863 4.31101 37009 ft 418 kts 224°
2026-05-06 21:07 42.62485 4.25892 37010 ft 418 kts 224°
2026-05-06 21:08 42.58162 4.20748 36869 ft 419 kts 224°
2026-05-06 21:08 42.55975 4.18153 36629 ft 418 kts 224°
2026-05-06 21:08 42.53789 4.15560 36347 ft 417 kts 224°
2026-05-06 21:08 42.51610 4.12981 36094 ft 415 kts 224°
2026-05-06 21:09 42.49438 4.10416 35852 ft 414 kts 224°
2026-05-06 21:09 42.48002 4.08721 35687 ft 413 kts 224°
2026-05-06 21:09 42.45841 4.06174 35447 ft 412 kts 224°
2026-05-06 21:09 42.43680 4.03625 35202 ft 411 kts 224°
2026-05-06 21:10 42.41523 4.01082 34968 ft 410 kts 224°
2026-05-06 21:10 42.39377 3.98550 34726 ft 409 kts 225°
2026-05-06 21:10 42.37235 3.96023 34336 ft 408 kts 225°
2026-05-06 21:10 42.35091 3.93497 33422 ft 410 kts 225°
2026-05-06 21:11 42.32936 3.90962 32462 ft 411 kts 225°
2026-05-06 21:11 42.30780 3.88431 31560 ft 411 kts 224°
2026-05-06 21:11 42.28620 3.85906 30620 ft 412 kts 224°
2026-05-06 21:11 42.26442 3.83363 29461 ft 415 kts 224°
2026-05-06 21:12 42.24251 3.80800 28238 ft 419 kts 224°
2026-05-06 21:12 42.22011 3.78178 27033 ft 422 kts 224°
2026-05-06 21:12 42.19783 3.75571 25945 ft 425 kts 224°
2026-05-06 21:12 42.17582 3.72998 25613 ft 410 kts 224°
2026-05-06 21:13 42.15469 3.70540 25493 ft 392 kts 224°
2026-05-06 21:13 42.13441 3.68186 25219 ft 379 kts 224°
2026-05-06 21:13 42.11463 3.65893 24876 ft 372 kts 224°
2026-05-06 21:13 42.09503 3.63615 24635 ft 371 kts 224°
2026-05-06 21:14 42.07646 3.61218 24396 ft 369 kts 229°
2026-05-06 21:14 42.05872 3.58722 24160 ft 369 kts 229°
2026-05-06 21:14 42.04091 3.56228 23921 ft 369 kts 229°
2026-05-06 21:14 42.02312 3.53739 23681 ft 369 kts 229°
2026-05-06 21:15 42.00532 3.51253 23289 ft 368 kts 229°
2026-05-06 21:15 41.98758 3.48780 22909 ft 367 kts 229°
2026-05-06 21:15 41.96987 3.46322 22535 ft 365 kts 229°
2026-05-06 21:15 41.95239 3.43897 21704 ft 358 kts 229°
2026-05-06 21:16 41.93517 3.41507 20709 ft 355 kts 228°
2026-05-06 21:16 41.91816 3.39145 19847 ft 348 kts 228°
2026-05-06 21:16 41.90143 3.36822 18950 ft 345 kts 228°
2026-05-06 21:16 41.88475 3.34511 18021 ft 344 kts 228°
2026-05-06 21:17 41.86820 3.32216 17056 ft 341 kts 228°
2026-05-06 21:17 41.85180 3.29942 16167 ft 337 kts 228°
2026-05-06 21:17 41.83556 3.27690 15292 ft 334 kts 227°
2026-05-06 21:17 41.81952 3.25465 14476 ft 330 kts 227°
2026-05-06 21:18 41.80360 3.23264 13646 ft 327 kts 227°
2026-05-06 21:18 41.78781 3.21082 12760 ft 324 kts 227°
2026-05-06 21:18 41.77220 3.18931 11893 ft 320 kts 227°
2026-05-06 21:18 41.75672 3.16804 11040 ft 317 kts 227°
2026-05-06 21:19 41.74138 3.14696 10223 ft 314 kts 227°
2026-05-06 21:19 41.72633 3.12628 9735 ft 300 kts 227°
2026-05-06 21:19 41.71222 3.10689 9397 ft 284 kts 227°
2026-05-06 21:19 41.69859 3.08817 8831 ft 279 kts 227°
2026-05-06 21:20 41.68514 3.06969 8161 ft 275 kts 227°
2026-05-06 21:20 41.67181 3.05134 7536 ft 276 kts 227°
2026-05-06 21:20 41.65807 3.03368 7188 ft 273 kts 223°
2026-05-06 21:20 41.64627 3.01423 6645 ft 273 kts 243°
2026-05-06 21:21 41.63744 2.99102 6287 ft 293 kts 245°
2026-05-06 21:21 41.62798 2.96521 6281 ft 319 kts 245°
2026-05-06 21:21 41.61807 2.93828 6281 ft 324 kts 244°
2026-05-06 21:21 41.60784 2.91095 6281 ft 325 kts 244°
2026-05-06 21:22 41.59763 2.88405 6233 ft 323 kts 244°
2026-05-06 21:22 41.58746 2.85743 5629 ft 320 kts 243°
2026-05-06 21:22 41.57747 2.83134 5014 ft 319 kts 243°
2026-05-06 21:22 41.56726 2.80475 4404 ft 316 kts 242°
2026-05-06 21:23 41.55724 2.77880 3833 ft 313 kts 242°
2026-05-06 21:23 41.54749 2.75356 3662 ft 298 kts 242°
2026-05-06 21:23 41.53827 2.72964 3538 ft 282 kts 242°
2026-05-06 21:23 41.52954 2.70701 3406 ft 267 kts 242°
2026-05-06 21:24 41.52122 2.68543 3127 ft 258 kts 242°
2026-05-06 21:24 41.51304 2.66427 3008 ft 257 kts 242°
2026-05-06 21:24 41.50480 2.64299 3011 ft 259 kts 242°
2026-05-06 21:24 41.49651 2.62155 3010 ft 259 kts 242°
2026-05-06 21:25 41.48823 2.60018 3008 ft 260 kts 242°
2026-05-06 21:25 41.47993 2.57880 3009 ft 260 kts 242°
2026-05-06 21:25 41.47100 2.55588 3013 ft 302 kts 242°
2026-05-06 21:25 41.46084 2.52978 3009 ft 325 kts 242°
2026-05-06 21:26 41.45034 2.50278 3008 ft 329 kts 242°
2026-05-06 21:26 41.43984 2.47571 3008 ft 330 kts 242°
2026-05-06 21:26 41.42926 2.44848 3009 ft 330 kts 242°
2026-05-06 21:26 41.41870 2.42134 3007 ft 330 kts 242°
2026-05-06 21:27 41.40795 2.39442 3005 ft 329 kts 238°
2026-05-06 21:27 41.39634 2.36937 3000 ft 305 kts 240°
2026-05-06 21:27 41.38739 2.34492 3002 ft 283 kts 245°
2026-05-06 21:27 41.37985 2.32176 3003 ft 262 kts 245°
2026-05-06 21:28 41.37271 2.30037 3003 ft 243 kts 245°
2026-05-06 21:28 41.36590 2.28032 2848 ft 234 kts 245°
2026-05-06 21:28 41.35926 2.26083 2564 ft 230 kts 245°
2026-05-06 21:28 41.35279 2.24179 2275 ft 220 kts 244°
2026-05-06 21:29 41.34665 2.22374 1989 ft 208 kts 244°
2026-05-06 21:29 41.34089 2.20683 1740 ft 192 kts 245°
2026-05-06 21:29 41.33562 2.19135 1475 ft 176 kts 244°
2026-05-06 21:29 41.33087 2.17738 1239 ft 157 kts 244°
2026-05-06 21:30 41.32659 2.16467 1027 ft 145 kts 244°
2026-05-06 21:30 41.32259 2.15289 837 ft 138 kts 244°
2026-05-06 21:30 41.31860 2.14146 660 ft 136 kts 245°
2026-05-06 21:30 41.31476 2.12997 507 ft 136 kts 247°
2026-05-06 21:31 41.31082 2.11846 305 ft 137 kts 246°
2026-05-06 21:31 41.30682 2.10692 121 ft 139 kts 248°
2026-05-06 21:31 41.30288 2.09526 19 ft 127 kts 246°
2026-05-06 21:31 41.29983 2.08644 24 ft 80 kts 245°
2026-05-06 21:32 41.29828 2.08196 20 ft 33 kts 245°
2026-05-06 21:32 41.29546 2.07785 16 ft 16 kts 216°
2026-05-06 21:32 41.29462 2.07701 16 ft 9 kts 220°
2026-05-06 21:33 41.29401 2.07700 16 ft 13 kts 152°
2026-05-06 21:33 41.29303 2.07762 21 ft 10 kts 155°
2026-05-06 21:33 41.29243 2.07798 19 ft 9 kts 155°
2026-05-06 21:33 41.29189 2.07810 19 ft 8 kts 187°
2026-05-06 21:34 41.29142 2.07829 19 ft 7 kts 155°
2026-05-06 21:34 41.29118 2.07843 19 ft 0 kts 156°